Regional Weather Roundup
Issued by NWS

Home | Current Version | Previous Version | Text Only | Print | Product List | Glossary Off
Versions: 1 2 3 4 5 6 7 8 9 10 11 12 13 14 15 16 17 18 19 20 21 22 23 24 25 26 27 28 29 30 31 32 33 34 35 36 37 38 39 40 41 42 43 44 45 46 47 48 49 50

248
ASUS43 KMPX 122001
RWRMN
WEATHER ROUNDUP FOR MINNESOTA
NATIONAL WEATHER SERVICE TWIN CITIES/CHANHASSEN MN
200 PM CST TUE DEC 12 2017


NOTE: "FAIR" INDICATES FEW OR NO CLOUDS BELOW 12,000 FEET WITH NO
SIGNIFICANT WEATHER AND/OR OBSTRUCTIONS TO VISIBILITY. N/A MEANS
CURRENT SKY AND/OR WEATHER CONDITIONS ARE NOT AVAILABLE.

MNZ060>063-068>070-122100-
   Twin Cities Metro

CITY           SKY/WX    TMP DP  RH WIND       PRES   REMARKS
TWIN CITIES    FLURRIES  18  11  74 S8        30.04F WCI   8
ST PAUL        LGT SNOW  17   9  70 S7        30.06F WCI   8
CRYSTAL        FLURRIES  17   9  70 SE8       30.01F WCI   7
BLAINE         LGT SNOW  19  10  68 S6        30.01F WCI  11
LAKEVILLE      CLOUDY    18  10  73 S6        30.04F WCI   9
EDEN PRAIRIE   FLURRIES  19  12  74 S7        30.02F WCI  10
SOUTH ST PAUL  CLOUDY    18   9  68 S7        30.04F WCI   9
LAKE ELMO      CLOUDY    18  10  73 S8        30.04F WCI   7
$$
MNZ001>005-007-008-013>017-022>024-027-028-122100-
   Northwest Minnesota

CITY           SKY/WX    TMP DP  RH WIND       PRES   REMARKS
BEMIDJI        CLOUDY    16  13  88 S8        29.84F WCI   5
HALLOCK        CLOUDY    27  25  93 S14       29.77F WCI  15
ROSEAU         CLOUDY    18  14  86 SE8       29.80F WCI   7
WARROAD        FLURRIES  16  12  86 SE6       29.81F WCI   7
CROOKSTON      CLOUDY    30  27  86 S13       29.82F WCI  20
FOSSTON        CLOUDY    25  21  86 S10       29.82F WCI  15
DETROIT LAKES  MOSUNNY   28  27  93 SW9       29.85F WCI  20
MOORHEAD       CLOUDY    34  27  75 CALM      29.85F
PARK RAPIDS    CLOUDY    20  17  88 S8        29.85F WCI  10
MAHNOMEN       FAIR      27  24  90 SW13      29.82F WCI  16
$$
MNZ006-009>011-018-025>026-122100-
   North Central Minnesota

CITY           SKY/WX    TMP DP  RH WIND       PRES   REMARKS
BAUDETTE       FLURRIES  15  11  83 SE10      29.83F WCI   2
FLAG ISLAND    CLOUDY    12   9  85 SE6       29.83F WCI   3
INTL FALLS     CLOUDY    11   5  77 SE6       29.89F HAZE    WCI   1
WASKISH        CLOUDY    16  12  86 SE8       29.85F WCI   5
LONGVILLE      LGT SNOW  12  10  92 SE8       29.90F VSB 1   WCI   1
GRAND RAPIDS   FLURRIES  12   7  80 SE6       29.92F WCI   3
CRANE LAKE     CLOUDY     9   1  72 S3        29.95F
ORR            FLURRIES   9   1  72 SE5       29.88F WCI   0
COOK           FLURRIES  10   5  79 S3        29.91F
WALKER         CLOUDY    15  11  84 S6        29.86F WCI   6
$$
MNZ012-019>021-037-122100-
   Northeast Minnesota

CITY           SKY/WX    TMP DP  RH WIND       PRES   REMARKS
DULUTH         CLOUDY    11   4  73 CALM      29.93F
ELY            CLOUDY     7   0  72 CALM      29.92F
HIBBING        CLOUDY     8   3  80 SE6       29.92F WCI  -2
EVELETH        FLURRIES   8   1  72 S3        29.92F
DULUTH HARBOR  CLOUDY    14   5  67 SW6       30.02F WCI   5
TWO HARBORS    CLOUDY    18   5  57 S3        29.94F
SILVER BAY     CLOUDY    16  -6  38 CALM      29.94F
GRAND MARAIS     N/A     14  -4  44 CALM      29.99F
G MARAIS ARPRT SUNNY      7  -8  51 CALM      29.88F
$$
MNZ029>031-032-039>041-046>048-054>057-064-122100-
   West Central Minnesota

CITY           SKY/WX    TMP DP  RH WIND       PRES   REMARKS
FERGUS FALLS   CLOUDY    36  28  75 SW8       29.90F
WHEATON        MOSUNNY   43  28  56 SW10      29.91F
MORRIS         CLOUDY    39  28  65 SW9       29.90F
ALEXANDRIA     CLOUDY    28  23  81 SW12      29.90F WCI  18
ELBOW LAKE     FAIR      36  30  80 W10       29.89F HAZE
WADENA         CLOUDY    27  21  80 S6        29.87F WCI  20
GLENWOOD       CLOUDY    28  25  86 SW9       29.91F WCI  20
APPLETON       CLOUDY    39  28  65 SW14      29.91F
BENSON         CLOUDY    36  28  75 W12       29.93F
ORTONVILLE     MOSUNNY   41  28  60 W12       29.90F
MADISON        CLOUDY    43  30  61 W17       29.94F
WILLMAR        FAIR      36  28  75 SW10      29.96F
$$
MNZ033>034-036-042>043-049>051-058-059-122100-
   Central Minnesota

CITY           SKY/WX    TMP DP  RH WIND       PRES   REMARKS
ST CLOUD       CLOUDY    18  14  84 S7        29.98F WCI   9
SAUK CENTRE    CLOUDY    27  22  82 SW8       29.92F WCI  18
PAYNESVILLE    CLOUDY    28  23  82 SW5       29.95F WCI  22
AITKIN         FLURRIES  12   9  85 SE7       29.92F WCI   2
PINE RIVER     CLOUDY    12   9  85 S8        29.93F WCI   1
BRAINERD       LGT SNOW  16  11  80 S9        29.92F WCI   4
STAPLES        CLOUDY    19  16  86 S9        29.89F WCI   9
LONG PRAIRIE   PTSUNNY   25  19  80 SE8       29.93F WCI  16
LITTLE FALLS   CLOUDY    19  12  73 SE8       29.95F WCI   9
LITCHFIELD     CLOUDY    27  21  80 S3        29.97F
BUFFALO        CLOUDY    19  12  75 S7        30.01F WCI  10
MAPLE LAKE     CLOUDY    22  16  77 S5        30.00F WCI  15
HUTCHINSON     CLOUDY    26  20  76 S9        29.99F WCI  17
$$
MNZ037-044-045-052-053-122100-
   East Central Minnesota

CITY           SKY/WX    TMP DP  RH WIND       PRES   REMARKS
PRINCETON      CLOUDY    18  12  79 SE6       29.99F WCI   9
MORA           CLOUDY    14   9  79 S5        30.01F WCI   6
CAMBRIDGE      FLURRIES  16   9  73 S6        30.01F WCI   7
RUSH CITY      FLURRIES  14   8  77 S5        30.01F WCI   6
MOOSE LAKE     FLURRIES  14   9  79 CALM      29.96F
HINCKLEY       CLOUDY    14   9  79 S6        29.99F WCI   5
CLOQUET        LGT SNOW  12   5  73 SW3       29.94F
MCGREGOR       CLOUDY    18  12  79 S5        29.95F WCI  11
$$
MNZ071>073-080-081-089-090-097-098-122100-
   Southwest Minnesota

CITY           SKY/WX    TMP DP  RH WIND       PRES   REMARKS
MONTEVIDEO     MOSUNNY   39  28  65 W7        29.95F
GRANITE FALLS  MOSUNNY   39  29  67 SW13      29.99F
CANBY          CLOUDY    42  30  62 SW21G26   29.95F
MARSHALL       SUNNY     40  28  62 W20G26    29.97F
REDWOOD FALLS  PTSUNNY   35  25  66 SW13      29.98F WCI  26
OLIVIA         MOSUNNY   34  28  80 SW14      29.96F WCI  24
PIPESTONE      MOSUNNY   36  27  69 W15       29.98F
WINDOM           N/A     36  19  51 SW10      30.01F
WORTHINGTON    CLOUDY    33  25  72 SW16      30.02F WCI  23
JACKSON        SUNNY     32  25  74 MISG      30.02F
TRACY          SUNNY     38  30  73 W17       29.98F
SLAYTON        SUNNY     34  27  77 SW14      30.01F WCI  24
$$
MNZ065>067-074>077-082>085-091>093-122100-
   South Central Minnesota

CITY           SKY/WX    TMP DP  RH WIND       PRES   REMARKS
MANKATO        CLOUDY    23  17  78 S13       30.02F WCI  11
NEW ULM        PTSUNNY   30  21  69 S6        29.99F WCI  24
ST JAMES       PTSUNNY   34  25  69 SW12      30.02F WCI  25
FAIRMONT       CLOUDY    31  23  72 W14       30.03F WCI  21
GLENCOE        CLOUDY    25  19  77 S8        30.00F WCI  16
FARIBAULT      CLOUDY    21  12  68 S6        30.03F WCI  14
OWATONNA       CLOUDY    21  16  79 SW10      30.03F WCI  10
WASECA         CLOUDY    23  18  80 S12       30.04F WCI  12
$$
MNZ078>079-086>088-094>096-122100-
   Southeast Minnesota

CITY           SKY/WX    TMP DP  RH WIND       PRES   REMARKS
ROCHESTER      CLOUDY    17  10  74 SW9       30.04F WCI   6
RED WING       FLURRIES  18   3  53 SW3       30.05F
STANTON        CLOUDY    21  11  67 SW5       30.03F WCI  14
DODGE CENTER   CLOUDY    18  10  73 SW9       30.02F WCI   6
WINONA           N/A     19   3  49 CALM      30.10F
PRESTON        CLOUDY    19   5  55 W7        30.04F WCI  10
$$
ABBREVIATIONS USED IN REMARKS
   TC - TEMPERATURES IN CELSIUS
  WCI - WIND CHILL INDEX
   HX - HEAT INDEX
  VSB - VISIBILITY
$$




USA.gov is the U.S. government's official web portal to all federal, state and local government web resources and services.